Other Surface Observations
Issued by NWS

Home | Current Version | Previous Version | Text Only | Print | Product List | Glossary On
Versions: 1 2 3 4 5 6 7 8 9 10 11 12 13 14 15 16 17 18 19 20 21 22 23 24 25 26 27 28 29 30 31 32 33 34 35 36 37 38 39 40 41 42 43 44 45 46 47 48 49 50
000
SXUS52 KTAE 012118
OSOTAE
OSOTAE
North Florida/South Alabama/Southwest Georgia Weather Roundup
National Weather Service Tallahassee Florida
500 PM EDT WED JUL 01 2015

Note: "fair" indicates few or no clouds below 12,000 feet with no
significant weather and/or obstructions to visibility.

!FLZ017-115-028-034-025-012200
...North Florida...

CITY           SKY/WX    TMP DP  RH WIND       PRES   REMARKS
TALLAHASSEE    PTSUNNY   92  71  50 W10       30.05F HX  98
APALACHICOLA   MOSUNNY   92  69  47 W9        30.08S HX  97
PERRY          MOSUNNY   88  69  53 S13       30.07F HX  93
CROSS CITY       N/A     92  72  51 SW8G17    30.08F HX  99
JACKSONVILLE   PTSUNNY   93  68  43 W12       30.03F HX  97
$$

!FLZ112-006-005-002-011-012200
...Florida Panhandle...

CITY           SKY/WX    TMP DP  RH WIND       PRES   REMARKS
MARIANNA       MOSUNNY   91  71  51 W12       30.04F HX  97
BONIFAY        MOCLDY    80  75  84 SW7       30.05F
PANAMA CITY NW FAIR      88  70  55 W15       30.04F HX  93
TYNDALL AFB    PTSUNNY   85  73  67 W14       30.07F HX  92
TYND DRONE APT FAIR      84  77  80 W8        30.07F HX  93
DE FUNIAK SPR  FAIR      86  73  64 W3        30.05F HAZE    HX  93
EGLIN AFB      MOSUNNY   88  73  60 SW12      30.05F HX  95
DESTIN         SUNNY     87  75  67 W10G17    30.06F HX  96
HURLBURT       SUNNY     88  74  64 VRB5G21   30.05F HX  96
CRESTVIEW      MOSUNNY   91  70  49 SW9       30.05F HX  96
PENSACOLA      MOSUNNY   89  72  56 SW14      30.05F HX  96
$$

!ALZ063-066-012200
...South Alabama...

CITY           SKY/WX    TMP DP  RH WIND       PRES   REMARKS
DOTHAN         MOSUNNY   90  68  48 SW14      30.07F HX  94
OZARK CAIRNS   PTSUNNY   90  70  51 W10       30.03F HX  95
FT RUCKER HELI PTSUNNY   90  67  46 W10       30.02F HX  93
RUCKER HELI 3  FAIR      90  65  43 W9G22     30.05F HX  92
RUCKER HELI 2  PTSUNNY   90  69  50 VRB7      30.02F HX  94
FLORALA APT    MOSUNNY   91  67  44 VRB5      30.05F HX  94
ANDALUSIA      MOSUNNY   93  67  42 VRB7G17   30.03F HX  96
TROY           MOSUNNY   90  68  48 W10       30.04F HX  94
EUFALA         FAIR      94  68  42 W9G18     30.01F HX  98
MOBILE         MOSUNNY   88  74  63 S14G23    30.06F HX  96
$$

!GAZ120>161-012200
...Southwest and South Central Georgia...

CITY           SKY/WX    TMP DP  RH WIND       PRES   REMARKS
THOMASVILLE    FAIR      90  68  48 W7        30.06F HX  93
BAINBRIDGE     SUNNY     95  70  43 W9        30.04F HX 101
MOODY AFB      MOSUNNY   92  69  45 W13       30.03F HX  96
VALDOSTA       MOSUNNY   92  68  45 VRB3      30.05S HX  96
MOULTRIE       SUNNY     90  68  48 W8        30.05F HX  93
BLAKELY        MOSUNNY   91  68  46 W8        30.04F HX  95
ALBANY         MOSUNNY   90  69  50 SW14G20   30.05F HX  94
TIFTON         FAIR      90  65  44 W16       30.04F HX  91
FITZGERALD     MOCLDY    92  68  45 W10G18    30.05F HX  96
CORDELE        FAIR      94  70  45 W9        30.03S HX 100
AMERICUS       MOCLDY    88  68  51 SW8       30.03F HX  91
HOMERVILLE     FAIR      93  70  46 W17       30.04F HX  99
$$

!GMZ750-755-770-775-012200
...Coastal and Buoy Obs...

STATION/POSITION TIME  TEMP    WIND        PRES    VSBY  WAVE
                       AIR SEA DIR/SP/G                  HT/PER
                 (UTC) (F)     (DEG/KT/KT) (MB)    (MI)  (FT/S)
KEATON BEACH     2100   84     230/ 10/ 11 1018.7F
CEDAR KEY        2100   86     270/  6/  8 1019.4F
C TOWER          2100   83     240/  8/  9 1018.9F
APALACHICOLA BUO 2050   85 86  260/  8/  8 1019.5F         2/ 4
PANAMA CITY BUOY 2050   83 84  290/  4/  6 1019.7F         2/ 6
MOBILE BUOY      2050   84 87  220/ 10/ 12 1019.1F         2/ 5
ORANGE BCH AL BU 2050   84 84  230/ 10/ 12 1017.6F         1/ 4
$$



USA.gov is the U.S. government's official web portal to all federal, state and local government web resources and services.